Weather History for KEZF - November, 2012

Change the Weather History Date:

Sunday, November 11, 2012

  Actual Average (KNYG) Record (KNYG)
Temperature  
Mean Temperature 57 °F -  
Max Temperature 77 °F 55 °F 70 °F (1998)
Min Temperature 37 °F 37 °F 28 °F (1996)
Degree Days  
Heating Degree Days 8    
Growing Degree Days 7 (Base 50)    
Moisture  
Dew Point 41 °F    
Average Humidity 64    
Maximum Humidity 100    
Minimum Humidity 24    
Precipitation  
Precipitation 0.00 in - - ()
Sea Level Pressure  
Sea Level Pressure 30.40 in    
Wind  
Wind Speed 2 mph (SSE)    
Max Wind Speed 12 mph    
Max Gust Speed -    
Visibility 10 miles    
Events      
Averages and records for this station are not official NWS values.
T = Trace of Precipitation, MM = Missing Value Source: NWS Daily Summary

Daily Weather History Graph

Daily Weather History Graph

Search for Another Location

Airport or City:

Trip Planner

Search our weather history database for the weather conditions in past years. The results will help you decide how hot, cold, wet, or windy it might be!

Date:

Astronomy

Nov. 11, 2012 Rise Set
Actual Time 6:47 AM EST 5:00 PM EST
Civil Twilight 6:19 AM EST 5:28 PM EST
Nautical Twilight 5:47 AM EST 5:59 PM EST
Astronomical Twilight 5:16 AM EST 6:30 PM EST
Moon 4:00 AM EST (11/11) 3:21 PM EST (11/11)
Length of Visible Light 11h 08m
Length of Day
10h 12m
Waning Crescent, 7% of the Moon is Illuminated
Nov 11
Waning Crescent
Nov 13
New
Nov 20
First Quarter
Nov 28
Full
Dec 6
Last Quarter

Hourly Weather History & Observations

Time (EST) Temp. Dew Point Humidity Pressure Visibility Wind Dir Wind Speed Gust Speed Precip Events Conditions
12:35 AM 42.8 °F 41.7 °F 96% 30.36 in 10.0 mi Calm Calm - N/A   Clear
12:55 AM 42.3 °F 41.5 °F 97% 30.36 in 10.0 mi Calm Calm - N/A   Clear
1:15 AM 41.9 °F 41.4 °F 98% 30.36 in 10.0 mi Calm Calm - N/A   Clear
1:35 AM 41.5 °F 41.0 °F 98% 30.36 in 7.0 mi Calm Calm - N/A   Clear
1:55 AM 40.6 °F 40.1 °F 98% 30.35 in 10.0 mi Calm Calm - N/A   Clear
2:15 AM 41.0 °F 40.3 °F 97% 30.35 in 10.0 mi Calm Calm - N/A   Clear
2:35 AM 40.6 °F 40.1 °F 98% 30.35 in 10.0 mi Calm Calm - N/A   Clear
2:55 AM 40.6 °F 40.3 °F 99% 30.36 in 10.0 mi Calm Calm - N/A   Clear
3:15 AM 39.4 °F 39.2 °F 99% 30.36 in 7.0 mi Calm Calm - N/A   Clear
3:35 AM 40.3 °F 40.3 °F 100% 30.36 in 10.0 mi Calm Calm - N/A   Clear
3:55 AM 39.7 °F 39.4 °F 99% 30.37 in 10.0 mi Calm Calm - N/A   Clear
4:15 AM 39.6 °F 39.4 °F 99% 30.37 in 10.0 mi Calm Calm - N/A   Clear
4:35 AM 39.4 °F 39.2 °F 99% 30.38 in 10.0 mi Calm Calm - N/A   Clear
4:55 AM 39.4 °F 39.4 °F 100% 30.38 in 10.0 mi Calm Calm - N/A   Clear
5:15 AM 39.4 °F 39.4 °F 100% 30.39 in 7.0 mi Calm Calm - N/A   Clear
5:35 AM 39.0 °F 39.0 °F 100% 30.39 in 10.0 mi Calm Calm - N/A   Clear
5:55 AM 39.0 °F 39.0 °F 100% 30.40 in 10.0 mi Calm Calm - N/A   Clear
6:35 AM 38.1 °F 37.8 °F 99% 30.42 in 10.0 mi Calm Calm - N/A   Clear
6:55 AM 37.9 °F 37.9 °F 100% 30.43 in 7.0 mi Calm Calm - N/A   Clear
7:15 AM 38.3 °F 38.3 °F 100% 30.44 in 7.0 mi Calm Calm - N/A   Clear
7:35 AM 38.8 °F 38.8 °F 100% 30.45 in 10.0 mi Calm Calm - N/A   Clear
7:55 AM 40.8 °F 40.5 °F 99% 30.46 in 10.0 mi Calm Calm - N/A   Clear
8:35 AM 45.1 °F 43.2 °F 93% 30.46 in 10.0 mi Calm Calm - N/A   Clear
8:55 AM 48.4 °F 44.4 °F 86% 30.46 in 10.0 mi Calm Calm - N/A   Clear
9:15 AM 50.5 °F 45.0 °F 81% 30.46 in 10.0 mi Calm Calm - N/A   Clear
9:35 AM 52.5 °F 44.8 °F 75% 30.46 in 10.0 mi Calm Calm - N/A   Clear
9:55 AM 55.9 °F 45.7 °F 68% 30.46 in 10.0 mi Calm Calm - N/A   Clear
10:15 AM 60.4 °F 43.5 °F 54% 30.46 in 10.0 mi Calm Calm - N/A   Clear
10:35 AM 62.2 °F 42.6 °F 49% 30.46 in 10.0 mi Calm Calm - N/A   Clear
10:55 AM 63.9 °F 42.4 °F 46% 30.45 in 10.0 mi Calm Calm - N/A   Clear
11:15 AM 65.8 °F 43.0 °F 43% 30.44 in 10.0 mi Calm Calm - N/A   Clear
11:35 AM 67.8 °F 42.6 °F 40% 30.44 in 10.0 mi Calm Calm - N/A   Clear
11:55 AM 70.2 °F 41.9 °F 36% 30.43 in 10.0 mi South 3.5 mph - N/A   Clear
12:15 PM 71.4 °F 41.0 °F 33% 30.41 in 10.0 mi SSE 5.8 mph - N/A   Clear
12:35 PM 73.0 °F 41.2 °F 32% 30.40 in 10.0 mi SSW 8.1 mph - N/A   Clear
12:55 PM 73.9 °F 40.8 °F 30% 30.39 in 10.0 mi South 8.1 mph - N/A   Clear
1:15 PM 74.7 °F 39.4 °F 28% 30.38 in 10.0 mi SSW 11.5 mph - N/A   Clear
1:35 PM 75.4 °F 39.6 °F 27% 30.38 in 10.0 mi SSW 10.4 mph - N/A   Clear
1:55 PM 76.1 °F 38.8 °F 26% 30.37 in 10.0 mi South 9.2 mph - N/A   Clear
2:15 PM 76.5 °F 37.4 °F 24% 30.37 in 10.0 mi SSW 11.5 mph - N/A   Clear
2:35 PM 77.0 °F 37.2 °F 24% 30.37 in 10.0 mi South 6.9 mph - N/A   Clear
2:55 PM 76.3 °F 38.3 °F 25% 30.36 in 10.0 mi South 5.8 mph - N/A   Clear
3:15 PM 76.3 °F 38.5 °F 26% 30.36 in 10.0 mi South 9.2 mph - N/A   Clear
3:35 PM 75.4 °F 38.7 °F 27% 30.36 in 10.0 mi SSE 9.2 mph - N/A   Clear
3:55 PM 75.2 °F 38.7 °F 27% 30.37 in 10.0 mi SSE 6.9 mph - N/A   Clear
4:15 PM 74.1 °F 38.8 °F 28% 30.37 in 10.0 mi South 5.8 mph - N/A   Clear
4:35 PM 72.7 °F 40.5 °F 31% 30.38 in 10.0 mi SSE 9.2 mph - N/A   Clear
4:55 PM 70.9 °F 41.4 °F 34% 30.39 in 10.0 mi SSE 9.2 mph - N/A   Clear
5:15 PM 68.9 °F 41.7 °F 37% 30.39 in 10.0 mi SSE 8.1 mph - N/A   Clear
5:35 PM 67.1 °F 42.4 °F 41% 30.40 in 10.0 mi SSE 6.9 mph - N/A   Clear
5:55 PM 64.9 °F 42.8 °F 45% 30.40 in 10.0 mi SSE 6.9 mph - N/A   Clear
6:15 PM 63.1 °F 42.4 °F 47% 30.40 in 10.0 mi SE 6.9 mph - N/A   Clear
6:35 PM 61.3 °F 43.2 °F 51% 30.42 in 10.0 mi SSE 6.9 mph - N/A   Clear
6:55 PM 58.8 °F 42.6 °F 55% 30.42 in 10.0 mi SSE 5.8 mph - N/A   Clear
7:15 PM 57.7 °F 43.3 °F 59% 30.42 in 10.0 mi SSE 6.9 mph - N/A   Clear
7:35 PM 56.8 °F 42.8 °F 59% 30.42 in 10.0 mi SSE 8.1 mph - N/A   Clear
7:55 PM 58.3 °F 43.3 °F 58% 30.42 in 10.0 mi SSE 6.9 mph - N/A   Clear
8:15 PM 56.7 °F 43.2 °F 61% 30.42 in 10.0 mi SSE 6.9 mph - N/A   Clear
8:35 PM 59.9 °F 43.7 °F 55% 30.42 in 10.0 mi SE 6.9 mph - N/A   Clear
8:55 PM 56.7 °F 43.3 °F 61% 30.43 in 10.0 mi SSE 6.9 mph - N/A   Clear
9:15 PM 56.1 °F 43.5 °F 63% 30.43 in 10.0 mi SSE 6.9 mph - N/A   Clear
9:35 PM 57.6 °F 44.4 °F 62% 30.43 in 10.0 mi SSE 6.9 mph - N/A   Clear
9:55 PM 59.0 °F 44.6 °F 59% 30.42 in 10.0 mi SSE 8.1 mph - N/A   Clear
10:15 PM 59.5 °F 45.5 °F 60% 30.42 in 10.0 mi SSE 10.4 mph - N/A   Clear
10:35 PM 59.4 °F 45.3 °F 60% 30.42 in 10.0 mi SSE 9.2 mph - N/A   Clear
10:55 PM 59.4 °F 45.5 °F 60% 30.42 in 10.0 mi South 6.9 mph - N/A   Clear
11:15 PM 59.7 °F 45.5 °F 59% 30.42 in 10.0 mi South 8.1 mph - N/A   Clear
11:35 PM 58.6 °F 45.1 °F 61% 30.42 in 10.0 mi South 6.9 mph - N/A   Clear
11:55 PM 58.1 °F 45.3 °F 62% 30.42 in 10.0 mi South 8.1 mph - N/A   Clear